Findlay, OH

4:15 PM EDT on April 23, 2017 (GMT -0400)
Findlay

Weather History for KFDY - August, 2014

Change the Weather History Date:

Sunday, August 31, 2014

  Actual Average Record
Temperature  
Mean Temperature 76 °F -  
Max Temperature 82 °F 79 °F 102 °F (1951)
Min Temperature 71 °F 59 °F 49 °F (1976)
Cooling Degree Days 12    
Growing Degree Days 26 (Base 50)    
Moisture  
Dew Point 68 °F    
Average Humidity 76    
Maximum Humidity 91    
Minimum Humidity 58    
Precipitation  
Precipitation 0.00 in - - ()
Sea Level Pressure  
Sea Level Pressure 29.96 in    
Wind  
Wind Speed 10 mph (SSW)    
Max Wind Speed 16 mph    
Max Gust Speed 23 mph    
Visibility 10 miles    
Events      
Averages and records for this station are not official NWS values.
T = Trace of Precipitation, MM = Missing Value Source: NWS Daily Summary

Daily Weather History Graph

Daily Weather History Graph

Search for Another Location

Airport or City:

Trip Planner

Search our weather history database for the weather conditions in past years. The results will help you decide how hot, cold, wet, or windy it might be!

Date:

Astronomy

Aug. 31, 2014 Rise Set
Actual Time 7:00 AM EDT 8:08 PM EDT
Civil Twilight 6:32 AM EDT 8:37 PM EDT
Nautical Twilight 5:58 AM EDT 9:10 PM EDT
Astronomical Twilight 5:22 AM EDT 9:46 PM EDT
Moon 12:48 PM EDT (8/31) 11:20 PM EDT (8/31)
Length of Visible Light 14h 04m
Length of Day
13h 08m
Waxing Crescent, 32% of the Moon is Illuminated
Aug 31
Waxing Crescent
Sep 2
First Quarter
Sep 8
Full
Sep 15
Last Quarter
Sep 24
New

Hourly Weather History & Observations

Time (EDT) Temp. Heat Index Dew Point Humidity Pressure Visibility Wind Dir Wind Speed Gust Speed Precip Events Conditions
12:53 AM 75.9 °F - 68.0 °F 76% 29.94 in 10.0 mi SSW 16.1 mph 23.0 mph N/A   Partly Cloudy
1:53 AM 75.0 °F - 68.0 °F 79% 29.96 in 10.0 mi SSW 11.5 mph - N/A   Mostly Cloudy
2:46 AM 73.9 °F - 66.9 °F 79% 29.98 in 10.0 mi SSW 9.2 mph - N/A   Mostly Cloudy
2:53 AM 73.9 °F - 66.9 °F 79% 29.96 in 10.0 mi SSW 10.4 mph - N/A   Mostly Cloudy
3:19 AM 73.9 °F - 66.9 °F 79% 29.98 in 10.0 mi SSW 10.4 mph - N/A   Overcast
3:53 AM 73.0 °F - 66.9 °F 81% 29.95 in 10.0 mi SSW 9.2 mph - N/A   Overcast
4:53 AM 72.0 °F - 66.0 °F 81% 29.94 in 10.0 mi SSW 9.2 mph - N/A   Overcast
5:53 AM 72.0 °F - 66.0 °F 81% 29.94 in 10.0 mi SSW 9.2 mph - N/A   Mostly Cloudy
6:53 AM 71.1 °F - 66.9 °F 87% 29.96 in 10.0 mi SW 6.9 mph - N/A   Partly Cloudy
7:53 AM 71.1 °F - 66.9 °F 87% 29.97 in 10.0 mi SSW 8.1 mph - N/A   Mostly Cloudy
8:33 AM 72.0 °F - 66.9 °F 84% 29.99 in 10.0 mi SSW 10.4 mph - N/A   Mostly Cloudy
8:53 AM 73.0 °F - 66.9 °F 81% 29.97 in 10.0 mi SSW 6.9 mph - N/A   Overcast
9:53 AM 73.9 °F - 68.0 °F 82% 29.98 in 10.0 mi SW 9.2 mph - N/A   Mostly Cloudy
10:17 AM 75.0 °F - 68.0 °F 79% 30.01 in 10.0 mi SW 10.4 mph - N/A   Mostly Cloudy
10:42 AM 75.0 °F - 68.0 °F 79% 30.01 in 10.0 mi WSW 10.4 mph - N/A   Overcast
10:53 AM 75.0 °F - 68.0 °F 79% 29.99 in 10.0 mi SW 6.9 mph - N/A   Mostly Cloudy
11:53 AM 78.1 °F - 66.9 °F 68% 29.97 in 10.0 mi WSW 9.2 mph - N/A   Scattered Clouds
12:14 PM 79.0 °F - 66.9 °F 66% 29.99 in 10.0 mi West 9.2 mph - N/A   Mostly Cloudy
12:53 PM 80.1 °F 82.7 °F 68.0 °F 67% 29.97 in 10.0 mi WSW 8.1 mph - N/A   Mostly Cloudy
1:26 PM 80.1 °F 82.3 °F 66.9 °F 64% 29.99 in 10.0 mi SSW 8.1 mph - N/A   Mostly Cloudy
1:53 PM 81.0 °F 83.3 °F 66.9 °F 62% 29.96 in 10.0 mi SW 6.9 mph - N/A   Mostly Cloudy
2:53 PM 82.0 °F 84.1 °F 66.0 °F 58% 29.95 in 10.0 mi SW 6.9 mph - N/A   Scattered Clouds
3:53 PM 82.0 °F 84.9 °F 68.0 °F 62% 29.94 in 10.0 mi SSW 4.6 mph - N/A   Mostly Cloudy
4:53 PM 82.9 °F 86.5 °F 69.1 °F 63% 29.93 in 10.0 mi SSW 8.1 mph - N/A   Mostly Cloudy
5:53 PM 82.0 °F 85.9 °F 70.0 °F 67% 29.93 in 10.0 mi SSW 8.1 mph - N/A   Clear
6:53 PM 80.1 °F 83.2 °F 70.0 °F 71% 29.92 in 10.0 mi SSW 10.4 mph - N/A   Partly Cloudy
7:53 PM 77.0 °F - 70.0 °F 79% 29.93 in 10.0 mi South 6.9 mph - N/A   Clear
8:53 PM 73.0 °F - 69.1 °F 87% 29.94 in 10.0 mi South 5.8 mph - N/A   Clear
10:53 PM 72.0 °F - 69.1 °F 91% 29.94 in 10.0 mi South 8.1 mph - N/A   Clear
11:53 PM 72.0 °F - 68.0 °F 87% 29.93 in 9.0 mi South 6.9 mph - N/A   Clear